Retour au catalogue

HEBI-3

ActifScienceSSO
NORAD 56156·PAYLOAD·🇨🇳 China
Ce nom de satellite n'a pas encore été confirmé par des sources officielles.

Lancé Mar 30, 2023 depuis Taiyuan Satellite Launch Center

Loading…

Prochains Passages (prochaines 24 heures)

TLE

FraisSource: Space-Track

Époque: Sep 14, 2026, 08:41 UTC

1 56156U 23047D   26257.36187674  .00002278  00000-0  12796-3 0  9990
2 56156  97.5017  83.2196 0001958 118.8658 241.2770 15.14318422191299

Suivez HEBI-3 en temps réel avec AllMySat

Download on the App Store